Weather WX

World > North America > United States > Pennsylvania

Baederwood, Pennsylvania Regional Weather

Lat: 40.11N, Lon: 75.14W
Wx Zone: PAZ068
Feedback

Baederwood, PA Regional Weather

Expires:201906161500;;163235
ASUS41 KPHI 161411
RWRPHI

REGIONAL WEATHER ROUNDUP
NATIONAL WEATHER SERVICE MOUNT HOLLY NJ
1000 AM EDT SUN JUN 16 2019

NOTE:  "FAIR" INDICATES FEW OR NO CLOUDS BELOW 12,000 FEET WITH NO
SIGNIFICANT WEATHER AND/OR OBSTRUCTIONS TO VISIBILITY.

 * = STATION DOES NOT REPORT PRECIPITATION (E.G. RAIN, SNOW, ETC.) 
        OR FOG.


PAZ043-044-047-054-055-060>062-066>071-161500-
EASTERN PENNSYLVANIA
  
CITY           SKY/WX    TMP DP  RH WIND       PRES   REMARKS
PHILADELPHIA   PTSUNNY   73  60  63 SW15      29.89F                  
NORTH PHILA    FAIR      78  60  53 SW10      29.90F                  
BLUE BELL*     FAIR      75  62  64 S8        29.89F                  
DOYLESTOWN     FAIR      75  61  61 S8        29.88F                  
QUAKERTOWN*    SUNNY     73  63  68 S7        29.89                   
PERKASIE*      FAIR      72  63  73 SW5       29.90F                  
POTTSTOWN      FAIR      73  60  63 VRB3      29.90F                  
LANCASTER      PTSUNNY   75  61  61 S5        29.88S                  
COATESVILLE    FAIR      73  63  68 VRB7      29.91F                  
WEST CHESTER   FAIR      75  61  60 S7        29.90F                  
READING        FAIR      76  64  66 SW6       29.86F                  
ALLENTOWN      FAIR      74  59  59 S7        29.87F                  
QN CITY/ALNTWN FAIR     N/A N/A N/A S7        29.89S                  
MOUNT POCONO   FAIR      65  57  75 S5        29.91S                  
HAZLETON       CLOUDY    66  57  72 CALM      29.93R                  
LEHIGHTON      PTSUNNY   70  61  73 CALM      29.89S                  
WILKES BARRE   CLOUDY    68  64  87 CALM      29.87S                  

$$

SKY/WX - Weather  TMP - Temperature  DP - Dew Point  RH - Relative Humidity
WIND - Wind Direction/Speed PRES - Barometric Pressure VSB - Visibility
WCI - Wind Chill Index E13G22 Wind - East Wind 13 mph/Gusts of 22 mph